{"data":{"norad_id":68561,"intl_designator":"2026-070V","name":"STARLINK-37114","alt_names":[],"object_type":"PAYLOAD","status":"ACTIVE","operator":null,"country":"US","launch_date":"2026-04-02","launch_site_code":"AFETR","launch_vehicle":null,"mission":null,"orbit_class":"UNKNOWN","rcs_meters":null,"size_class":null,"mass_kg":null,"dimensions":null,"purposes":["comms"],"wikipedia_slug":null,"has_3d_model":false,"image_url":null,"decayed_at":null,"tle_current":{"epoch":"2026-09-19T22:28:26.432256Z","epoch_age_seconds":93998,"freshness":"FRESH","line1":"1 68561U 26070V   26262.93641704  .00010200  00000+0  31251-3 0  9990","line2":"2 68561  53.1580 176.1512 0001707   5.6754 354.4268 15.34410229 26354","mean_motion":15.34410229,"eccentricity":0.0001707,"inclination_deg":53.158,"raan_deg":176.1512,"arg_perigee_deg":5.6754,"mean_anomaly_deg":354.4268,"bstar":0.00031251,"rev_number":2635,"period_min":93.847132454172,"perigee_km":461.50511139306,"apogee_km":463.84056387162,"semimajor_km":6840.8098376323,"source":"CELESTRAK","updated_at":"2026-09-20T09:00:43.937105Z"}}}